N1LTP Weather Reports


time (UTC)temp
F
wind
direction
speed
knots
gust
knots
rain 1hr
in
rain 24hr
in
rain mn
in
humidity
%
barometer
mb
20260904093007 64 76 0.0 0.0 0.00 0.14 0.00 91 1008.7
20260904091506 64 76 0.0 0.0 0.00 0.14 0.00 91 1008.7
20260904090005 64 76 0.0 0.0 0.00 0.14 0.00 91 1008.6
20260904084504 64 76 0.0 0.0 0.00 0.23 0.00 91 1008.5
20260904083003 64 76 0.0 0.0 0.00 0.23 0.00 91 1008.8
20260904081505 64 76 0.0 0.0 0.00 0.23 0.00 91 1008.9
20260904080002 64 76 0.0 0.0 0.00 0.23 0.00 91 1008.8
20260904074634 64 76 0.0 0.0 0.00 0.23 0.00 91 1008.8
20260904073057 65 76 0.0 0.0 0.00 0.23 0.00 91 1009.2
20260904071555 64 76 0.0 0.0 0.00 0.23 0.00 90 1009.3
20260904070054 64 76 0.0 0.0 0.00 0.23 0.00 90 1009.5
20260904064553 64 76 0.0 0.0 0.00 0.23 0.00 90 1009.5
20260904063107 65 76 0.0 0.0 0.00 0.23 0.00 90 1009.4
20260904061559 65 76 0.0 0.0 0.00 0.23 0.00 90 1009.6
20260904060109 65 76 0.0 0.0 0.00 0.23 0.00 90 1009.6
20260904054548 65 76 0.0 0.0 0.00 0.23 0.00 90 1009.7
20260904053046 65 76 0.0 0.0 0.00 0.23 0.00 90 1009.9
20260904051546 66 76 0.0 0.0 0.00 0.23 0.00 90 1010.0
20260904050043 66 76 0.0 0.0 0.00 0.23 0.00 90 1010.1
20260904044548 66 76 0.0 0.0 0.00 0.23 0.00 90 1010.4
20260904043040 67 76 0.0 0.0 0.00 0.23 0.00 90 1010.6
20260904041536 67 76 0.0 0.0 0.00 0.23 0.00 90 1010.5
20260904040034 67 76 0.0 0.0 0.00 0.23 0.00 89 1010.7
20260904034536 67 76 0.0 0.0 0.00 0.23 0.23 89 1010.6
20260904033036 68 76 0.0 0.0 0.00 0.23 0.23 90 1010.8
20260904031532 68 76 0.0 0.0 0.00 0.23 0.23 89 1010.7
20260904030032 68 76 0.0 0.0 0.00 0.23 0.23 89 1010.7
20260904024532 68 76 0.0 0.0 0.00 0.23 0.23 89 1010.8
20260904023031 69 76 0.0 0.0 0.00 0.23 0.23 89 1011.1
20260904021533 69 76 0.0 0.0 0.00 0.23 0.23 89 1011.1
20260904020030 69 76 0.0 0.0 0.00 0.23 0.23 89 1011.2
20260904014530 70 76 0.0 0.0 0.00 0.23 0.23 89 1011.2
20260904013033 70 76 0.0 0.0 0.00 0.23 0.23 89 1011.5
20260904011537 70 76 0.0 0.0 0.00 0.23 0.23 88 1011.5
20260904010043 70 76 0.0 0.0 0.00 0.23 0.23 88 1011.4
20260904004531 71 76 0.0 0.0 0.00 0.23 0.23 87 1011.3
20260904003029 71 76 0.0 0.0 0.00 0.23 0.23 87 1011.0
20260904001526 72 76 0.0 0.0 0.00 0.23 0.23 87 1011.0
20260904000026 72 76 0.0 0.0 0.00 0.23 0.23 87 1010.6
20260903234533 73 76 0.0 0.0 0.00 0.23 0.23 86 1010.9
20260903233025 73 76 0.0 0.0 0.00 0.23 0.23 86 1010.7
20260903231525 74 76 0.0 0.0 0.00 0.23 0.23 86 1010.8
20260903230025 74 76 0.0 0.0 0.00 0.23 0.23 85 1010.4
20260903224526 75 76 0.0 0.9 0.00 0.23 0.23 85 1010.7
20260903223026 75 76 0.0 2.6 0.00 0.23 0.23 85 1010.7
20260903221521 75 76 0.0 1.7 0.00 0.23 0.23 84 1011.0
20260903220021 76 76 0.0 1.7 0.00 0.23 0.23 84 1010.9
20260903214518 76 76 0.0 0.0 0.00 0.23 0.23 84 1010.7
20260903213027 76 76 0.0 0.9 0.00 0.23 0.23 84 1010.6
20260903211547 76 76 0.9 3.5 0.00 0.23 0.23 83 1010.7
20260903210017 77 78 0.0 1.7 0.00 0.23 0.23 83 1010.7
20260903204515 77 78 0.9 3.5 0.00 0.23 0.23 83 1010.7
20260903203014 77 80 0.9 5.2 0.00 0.23 0.23 83 1010.8
20260903201512 76 66 0.9 1.7 0.00 0.23 0.23 83 1011.0
20260903200011 77 65 0.9 4.3 0.00 0.23 0.23 83 1010.9
20260903194510 76 84 0.0 3.5 0.00 0.23 0.23 84 1011.0
20260903193008 76 94 0.9 3.5 0.00 0.23 0.23 84 1011.1
20260903191513 76 94 0.0 1.7 0.00 0.23 0.23 83 1011.3
20260903190004 77 94 0.9 2.6 0.00 0.23 0.23 83 1011.3
20260903184502 77 94 0.9 3.5 0.00 0.23 0.23 82 1011.5
20260903183100 77 94 1.7 3.5 0.00 0.23 0.23 82 1011.5
20260903181558 78 329 0.0 1.7 0.00 0.23 0.23 83 1011.7
20260903180106 78 329 0.0 2.6 0.00 0.23 0.23 81 1011.7
20260903174609 77 348 0.9 2.6 0.00 0.23 0.23 82 1011.8
20260903173055 77 348 0.9 4.3 0.00 0.23 0.23 83 1011.8
20260903171549 76 332 1.7 4.3 0.00 0.23 0.23 85 1012.0
20260903170105 74 316 0.9 5.2 0.00 0.23 0.23 87 1012.0
20260903164549 73 339 0.0 2.6 0.00 0.23 0.23 89 1011.9
20260903163036 72 336 0.0 1.7 0.00 0.23 0.23 90 1011.9
20260903161534 72 333 0.0 3.5 0.00 0.23 0.23 91 1011.9
20260903160033 71 350 0.0 1.7 0.00 0.23 0.23 92 1012.1
20260903154528 71 360 0.9 4.3 0.00 0.23 0.23 92 1012.4
20260903153025 71 340 0.9 3.5 0.00 0.23 0.23 92 1012.6
20260903151525 71 342 0.0 1.7 0.00 0.23 0.23 92 1012.7
20260903150027 70 338 0.0 1.7 0.00 0.23 0.23 92 1012.8
20260903144519 70 338 0.0 0.9 0.00 0.23 0.23 92 1013.1
20260903143017 70 338 0.0 5.2 0.00 0.23 0.23 92 1013.2
20260903141519 69 346 0.0 2.6 0.00 0.23 0.23 93 1013.4
20260903140012 69 346 0.0 1.7 0.00 0.23 0.23 92 1013.7
20260903134511 69 346 0.0 0.9 0.00 0.23 0.23 93 1013.7
20260903133010 68 346 0.0 0.0 0.00 0.23 0.23 92 1013.6
20260903131507 68 346 0.0 0.9 0.00 0.23 0.23 92 1013.6
20260903130006 67 346 0.0 1.7 0.00 0.23 0.23 92 1013.7
20260903124503 67 346 0.0 1.7 0.00 0.23 0.23 92 1013.8
20260903123100 66 346 0.0 0.9 0.01 0.23 0.23 92 1013.9
20260903121558 66 346 0.0 0.0 0.03 0.23 0.23 92 1014.1
20260903120055 65 346 0.0 1.7 0.04 0.23 0.23 92 1014.2
20260903114554 65 332 0.0 1.7 0.05 0.23 0.23 92 1014.5
20260903113051 65 328 0.0 3.5 0.04 0.22 0.22 91 1014.6
20260903111620 64 293 0.0 2.6 0.03 0.20 0.20 91 1014.4
20260903110059 64 43 0.0 1.7 0.02 0.19 0.19 91 1014.5
20260903104600 64 44 0.0 0.9 0.03 0.18 0.18 91 1014.3
20260903103047 64 44 0.0 1.7 0.08 0.18 0.18 91 1014.1
20260903101548 63 48 0.0 0.9 0.08 0.17 0.17 90 1014.1
20260903100043 63 48 0.0 1.7 0.08 0.17 0.17 90 1014.1
20260903094540 63 71 0.0 0.9 0.08 0.15 0.15 90 1014.4